IRIDIUM 33 DEB, 39778

Orbit data source: Space-Track

IRIDIUM 33 DEB, 39778 is space debris in LEO originally from a launch on Sun, 14 Sep 1997 UTC launched from the Tyuratam Missile And Space Complex (TTMTR). The debris from Iridium 33, an American commercial communications satellite, has been tracked extensively since its accidental collision with the defunct Russian satellite Cosmos 2251 in 2009. This event, occurring at high speed in low Earth orbit (LEO), generated thousands of pieces of space debris, significantly increasing the risk of further collisions. The Iridium 33 debris cloud has impacted space traffic management and orbital debris mitigation strategies, making it a subject of ongoing study in space situational awareness.

Loading next visibility...
Identifier
39778, 1997-051AAK
Orbit
LEO
Country
Flag of USUS
Related business
Manufacturer
Unknown
Mission
Spacecraft
Bus & Motor
Unknown
Mass
Unknown
Launch date (UTC)
1997-09-14 (28 years ago)
Launch vehicle
Unknown
Launch site
Tyuratam Missile And Space Complex (TTMTR)
Object type
Payload
Rocket body
Debris
Shape & HBR
Unknown shape, 0.1 m
Radar Cross Section
Small (<0.1 m²)

Expand to show TLE details & history
Last TLE update: 3 days ago

TLE from 3 days ago
0 IRIDIUM 33 DEB
1 39778U 97051AAK 26035.23030654  .00005135  00000-0  11931-2 0  9996
2 39778  86.3780  19.9871 0006289 184.8553 175.2594 14.54790559614702
Epoch: 2026-02-04T05:31Z
TLE epoch observation values (Epoch: 2026-02-04T05:31:38.485Z)
Latitude
-0.00003°
Longitude
162.67687°
Altitude
717.568 km
Speed
7.494 km/s
True Right ascension
01h 19m 56s
True Declination
0° 00' 00"
Sunlit
Object was in daylight at epoch
Visualization orbit readout
Latitude
Unknown
Longitude
Unknown
Altitude
Unknown
Speed
Unknown
Apparent Right ascension
Unknown
Apparent Declination
Unknown
Sunlit
N/A
Visualization observer readout
Local Sidereal Time
01:26:16
Azimuth
Unknown
Elevation
Unknown
Doppler factor
Unknown
Orbital elements
Apogee altitude
711.437 km
Perigee altitude
702.525 km
Semi-major axis
7,085.118 km
Eccentricity
0.00063
Inclination
86.378°
RAAN
19.9871°
Arg. of periapsis
184.8553°
True anomaly
175.26535°
Mean anomaly
175.2594°
Eccentric anomaly
175.26238°
Mean motion
3.63934 °/min
Orbital period
98.92 mins
BSTAR
0.0011931
Loading maneuver chart data...
Computing Atmospheric mass density...

Documentation

Showing up to 5 results
|